TimeEST,TemperatureF,Dew PointF,Humidity,Sea Level PressureIn,VisibilityMPH,Wind Direction,Wind SpeedMPH,Gust SpeedMPH,PrecipitationIn,Events,Conditions,WindDirDegrees,DateUTC
12:53 AM,41.0,26.1,55,30.29,10.0,East,6.9,-,N/A,,Mostly Cloudy,90,2013-01-11 05:53:00
1:53 AM,43.0,26.1,51,30.26,10.0,ESE,8.1,-,N/A,,Partly Cloudy,110,2013-01-11 06:53:00
2:53 AM,43.0,28.0,56,30.25,10.0,ESE,5.8,-,N/A,,Overcast,120,2013-01-11 07:53:00
3:53 AM,43.0,28.9,58,30.23,10.0,ESE,6.9,-,N/A,,Overcast,120,2013-01-11 08:53:00
4:53 AM,44.1,28.9,55,30.19,10.0,SE,6.9,-,N/A,,Clear,130,2013-01-11 09:53:00
5:53 AM,44.1,30.9,60,30.18,10.0,ESE,6.9,-,N/A,,Mostly Cloudy,120,2013-01-11 10:53:00
6:53 AM,42.8,33.8,70,30.14,9.0,SE,6.9,-,N/A,Rain,Light Rain,130,2013-01-11 11:53:00
7:53 AM,43.0,36.0,76,30.14,10.0,ESE,9.2,-,0.01,,Scattered Clouds,120,2013-01-11 12:53:00
8:53 AM,44.1,37.9,79,30.11,10.0,SE,8.1,-,N/A,,Mostly Cloudy,130,2013-01-11 13:53:00
9:53 AM,46.9,39.9,77,30.09,10.0,ESE,5.8,-,N/A,,Overcast,120,2013-01-11 14:53:00
10:53 AM,48.0,41.0,77,30.05,5.0,SE,8.1,-,0.02,Rain,Light Rain,130,2013-01-11 15:53:00
11:53 AM,48.0,42.1,80,30.00,6.0,SE,6.9,-,0.03,Rain,Light Rain,130,2013-01-11 16:53:00
12:24 PM,48.2,44.6,87,29.98,1.8,South,8.1,-,0.06,Rain,Heavy Rain,170,2013-01-11 17:24:00
12:34 PM,48.2,44.6,87,29.98,3.0,SW,3.5,-,0.08,Rain,Light Rain,220,2013-01-11 17:34:00
12:53 PM,46.9,45.0,93,30.01,10.0,SSE,4.6,-,0.08,,Overcast,160,2013-01-11 17:53:00
1:53 PM,46.9,45.0,93,30.00,10.0,SSE,5.8,-,0.00,Rain,Light Rain,150,2013-01-11 18:53:00
2:53 PM,48.2,48.2,100,29.96,6.0,SSE,8.1,-,N/A,,Overcast,160,2013-01-11 19:53:00
2:55 PM,48.2,48.2,100,29.96,1.8,SSE,6.9,-,0.00,Rain,Light Rain,150,2013-01-11 19:55:00
3:04 PM,48.2,48.2,100,29.96,6.0,SSE,6.9,-,0.00,Rain,Light Rain,150,2013-01-11 20:04:00
3:53 PM,53.1,51.1,93,29.99,9.0,SSW,4.6,-,0.00,,Overcast,200,2013-01-11 20:53:00
4:25 PM,53.6,51.8,94,29.97,5.0,SSW,9.2,-,N/A,,Overcast,210,2013-01-11 21:25:00
4:53 PM,53.1,51.1,93,29.99,10.0,South,9.2,-,N/A,,Mostly Cloudy,190,2013-01-11 21:53:00
5:53 PM,52.0,50.0,93,30.01,10.0,South,6.9,-,N/A,,Clear,180,2013-01-11 22:53:00
6:53 PM,52.0,51.1,97,30.03,10.0,South,6.9,-,N/A,,Overcast,180,2013-01-11 23:53:00
7:53 PM,52.0,51.1,97,30.03,10.0,South,6.9,-,N/A,,Mostly Cloudy,180,2013-01-12 00:53:00
8:53 PM,52.0,51.1,97,30.03,10.0,South,6.9,-,N/A,,Clear,180,2013-01-12 01:53:00
9:53 PM,51.1,50.0,96,30.03,10.0,South,8.1,-,0.01,,Clear,180,2013-01-12 02:53:00
10:27 PM,51.8,50.0,94,30.02,8.0,SSW,5.8,-,N/A,,Scattered Clouds,200,2013-01-12 03:27:00
10:36 PM,51.8,50.0,94,30.02,6.0,South,5.8,-,N/A,,Mostly Cloudy,190,2013-01-12 03:36:00
10:53 PM,51.1,51.1,100,30.03,3.0,South,4.6,-,N/A,,Overcast,170,2013-01-12 03:53:00
10:57 PM,51.8,50.0,94,30.01,1.8,South,5.8,-,N/A,,Overcast,170,2013-01-12 03:57:00
11:13 PM,50.0,50.0,100,30.00,2.5,South,5.8,-,N/A,,Mostly Cloudy,170,2013-01-12 04:13:00
11:16 PM,50.0,50.0,100,30.01,1.2,South,5.8,-,N/A,,Mostly Cloudy,170,2013-01-12 04:16:00
11:20 PM,50.0,50.0,100,30.01,0.8,South,6.9,-,N/A,,Mostly Cloudy,170,2013-01-12 04:20:00
11:30 PM,50.0,50.0,100,30.01,0.5,South,5.8,-,N/A,Fog,Fog,180,2013-01-12 04:30:00
11:41 PM,50.0,50.0,100,30.01,0.2,South,5.8,-,N/A,Fog,Fog,180,2013-01-12 04:41:00
11:53 PM,50.0,50.0,100,30.03,0.2,South,6.9,-,N/A,Fog,Fog,180,2013-01-12 04:53:00